Theta_e
336 336 337 338 337 337 336 336 335 335 335 334 334 333 336 337 335 333 330 330 330 330 330 329 329 329 328 328 328 329 331 334 335 335 334 336 336 333 330 329 328 329 331 331 332 330 329 329 329 328 326 326 327 326 326 327 326 323 319 316 313 311 308 308 312 316 318 319 319 317 318 319 319 319 318 319 320 320 320 320 320 320 320 319 319
336 336 336 336 337 337 336 335 335 335 335 334 334 335 336 336 334 332 330 330 330 331 330 329 329 328 328 327 328 328 330 333 334 333 333 335 337 335 330 329 329 328 328 329 331 330 330 329 329 329 328 326 326 326 327 326 325 326 324 320 320 319 314 310 310 312 314 316 317 315 314 317 318 318 316 317 319 319 320 320 319 319 319 319 319
335 336 335 336 336 336 335 335 335 335 335 335 335 335 336 336 335 334 332 331 331 331 330 330 329 328 328 328 328 329 329 331 333 333 332 334 337 336 332 329 329 328 327 327 330 331 330 329 329 329 329 327 326 326 327 325 324 327 326 324 325 325 322 317 312 309 307 309 312 311 311 314 314 315 316 315 317 318 319 319 319 318 318 318 318
334 335 335 336 336 336 335 336 336 335 335 335 335 335 335 335 336 335 333 332 331 331 330 331 330 328 328 328 328 328 328 330 331 332 333 334 336 336 335 332 330 328 328 327 328 329 330 329 329 329 329 328 327 326 327 326 325 326 327 327 327 327 325 322 317 312 307 306 307 307 310 312 311 313 314 313 314 317 318 318 319 318 318 318 318
334 334 335 335 335 336 335 335 336 335 335 335 335 335 334 335 335 336 334 332 331 331 331 331 330 329 329 328 328 328 327 328 329 331 333 335 334 334 335 334 333 330 328 327 327 328 329 328 329 329 329 328 327 327 326 326 325 325 326 327 327 328 326 324 320 316 312 309 306 306 307 309 310 311 311 311 312 315 317 317 318 318 318 318 318
334 334 334 334 334 335 335 335 335 335 334 334 334 335 334 333 334 334 335 333 333 332 332 332 332 331 329 329 328 329 328 327 328 330 333 334 335 334 334 333 333 333 331 329 327 327 327 327 327 328 329 328 327 327 326 326 326 324 325 327 328 328 326 325 323 320 317 315 311 309 308 307 310 310 307 309 312 314 315 316 318 318 318 318 317
334 334 334 334 334 334 335 335 334 334 334 333 333 333 333 332 332 332 333 334 334 334 333 333 332 331 332 331 330 330 330 329 328 329 330 333 335 335 335 334 334 334 334 332 330 328 328 327 327 327 327 328 327 327 326 326 326 324 324 326 328 328 326 325 325 323 319 319 316 313 310 308 310 309 305 306 311 313 312 313 316 317 318 317 316
333 333 334 333 333 333 334 334 334 334 333 333 333 332 332 332 332 333 333 332 333 333 333 333 333 332 332 332 332 331 330 330 330 329 329 331 332 334 335 335 335 335 335 334 332 331 329 328 328 328 327 328 327 326 326 327 327 325 324 325 327 327 325 324 326 325 323 321 318 316 315 313 311 309 308 308 307 308 310 310 313 315 315 316 316
333 333 333 332 332 332 333 333 333 333 332 333 332 332 332 333 333 333 333 333 333 333 333 333 332 332 332 332 332 331 331 332 332 331 331 331 331 334 335 335 336 335 334 333 332 332 330 329 329 329 328 328 328 327 327 328 327 326 324 324 327 327 326 325 324 324 325 324 321 319 318 317 315 311 312 313 306 304 307 308 311 312 312 315 316
333 333 333 332 332 331 332 332 332 332 332 332 332 332 332 333 333 333 334 334 334 334 333 333 332 332 332 332 332 332 332 332 332 331 331 331 332 334 334 335 336 334 333 332 331 332 331 330 330 330 329 329 329 328 328 328 328 327 326 324 326 327 327 326 323 323 325 326 324 322 321 320 319 315 314 314 309 304 305 306 309 309 307 311 314
333 333 333 332 331 331 332 332 332 332 332 332 332 332 332 332 332 333 334 334 334 334 334 333 332 332 332 331 331 332 331 331 331 331 332 332 333 333 333 334 336 335 333 332 330 330 331 331 331 330 329 329 329 329 329 329 329 328 328 327 325 327 328 327 325 322 323 326 326 325 325 323 322 319 314 313 313 310 307 307 308 307 304 306 310
333 333 333 332 331 331 332 332 331 331 331 331 332 332 332 332 332 333 333 333 333 332 332 333 332 332 332 331 331 331 331 331 330 331 332 333 333 333 334 334 335 336 334 333 331 331 331 330 331 330 330 330 329 329 329 329 329 328 329 329 328 327 327 328 327 325 323 325 327 327 327 326 325 322 317 313 314 315 313 309 308 308 306 303 306
331 331 332 331 331 331 331 331 331 331 331 331 331 331 330 331 332 332 333 333 332 331 331 331 332 332 332 332 332 331 331 330 330 330 330 331 331 332 334 334 335 335 333 332 331 332 332 331 330 330 330 330 330 330 329 329 329 329 328 329 330 329 328 328 328 328 325 323 325 327 327 327 325 324 321 316 315 317 318 315 312 311 309 304 302
329 329 329 329 329 329 329 328 328 329 329 329 329 329 329 330 331 331 332 332 332 331 331 332 332 332 332 332 332 331 331 330 330 330 330 330 330 330 333 333 334 333 332 331 331 330 331 331 329 328 329 331 331 331 330 329 329 328 328 328 328 329 329 329 328 329 328 325 323 325 326 326 326 324 322 320 318 318 319 318 316 314 312 308 305
327 327 326 326 326 326 327 327 326 327 327 327 328 328 328 329 330 331 332 332 332 331 332 332 332 331 332 332 331 331 331 331 331 330 330 330 330 330 331 331 331 332 331 331 331 330 330 331 329 328 329 330 331 331 330 330 329 328 328 328 327 328 328 329 329 328 329 328 325 322 322 324 325 324 322 321 321 320 320 320 319 318 315 314 312
326 325 324 325 325 325 326 325 326 326 326 326 327 327 328 328 329 329 330 331 332 331 331 331 332 331 331 331 330 330 330 329 329 329 330 330 330 330 329 329 330 330 330 330 331 330 330 331 330 330 330 329 329 330 329 330 329 328 327 327 327 327 327 328 328 329 328 328 327 325 323 323 323 323 322 321 321 321 322 321 321 321 320 318 317
325 324 324 324 324 324 325 325 325 326 326 326 326 326 326 326 327 328 328 330 331 332 331 331 331 332 331 331 331 330 329 328 328 328 330 330 329 329 329 329 330 329 329 330 331 331 331 331 331 331 330 330 330 329 330 330 330 328 328 328 327 327 327 327 328 328 328 328 328 328 327 326 325 324 323 323 322 322 321 322 322 322 322 321 320
325 324 324 324 324 324 324 324 324 325 325 325 325 325 325 325 326 327 327 328 329 331 331 330 330 331 331 331 330 330 330 329 329 329 330 330 328 329 329 329 329 329 328 329 330 330 330 330 330 329 329 329 329 328 328 330 330 329 330 330 329 327 327 327 327 328 328 329 329 328 328 329 328 327 326 325 325 324 324 324 324 323 323 323 322
324 324 324 323 323 323 323 323 323 323 323 324 324 325 324 324 326 327 327 328 329 329 329 329 329 330 330 330 330 330 330 330 330 329 329 330 328 328 329 329 328 328 327 328 329 330 330 329 329 328 327 327 328 328 328 328 328 329 328 328 328 327 327 326 326 326 327 327 327 327 327 328 329 329 329 328 327 327 326 326 326 325 325 324 324
323 323 322 321 321 321 321 321 321 321 321 322 323 323 323 324 325 326 326 327 328 329 329 329 329 330 330 329 329 329 329 330 331 329 329 329 327 327 327 327 326 326 326 326 327 328 328 328 327 327 327 327 328 328 328 328 328 328 326 327 327 327 327 327 327 327 327 327 326 326 326 327 327 327 328 329 329 328 328 327 328 327 326 326 325
322 322 320 319 319 319 320 320 320 319 318 319 320 321 323 324 324 324 325 325 326 326 328 329 330 330 329 329 329 329 328 329 330 330 329 327 326 327 327 326 325 324 323 323 324 324 324 324 324 326 327 327 328 328 328 327 327 327 326 326 327 327 327 327 327 328 327 327 327 327 327 327 327 328 328 328 328 328 328 328 328 328 328 327 326
321 321 319 318 318 318 319 320 320 319 318 319 321 321 323 323 323 324 323 323 324 325 326 327 328 329 329 328 328 328 329 329 329 330 330 329 327 328 328 326 325 324 322 321 320 320 320 321 321 322 324 325 326 326 326 325 325 325 325 324 325 326 327 328 328 327 326 326 326 325 327 328 328 329 329 328 329 328 328 329 329 328 328 328 328
320 319 318 318 317 318 318 318 319 319 319 319 320 321 321 321 322 322 322 322 323 324 324 325 325 325 325 325 325 326 326 326 328 329 329 329 327 327 326 325 324 323 321 319 318 317 317 318 318 319 320 321 322 321 321 322 323 323 323 323 323 323 323 325 326 325 325 325 325 325 326 328 328 328 329 329 329 329 329 329 329 329 329 329 329
319 318 319 318 317 318 318 317 317 317 318 318 319 320 320 320 320 320 320 321 321 322 322 323 322 322 322 321 320 321 322 322 324 325 327 327 326 326 323 322 322 321 319 318 317 316 316 316 316 317 318 319 318 318 317 316 317 318 319 320 321 320 321 322 323 324 325 325 325 325 326 326 326 326 327 327 328 328 328 329 329 328 328 327 327
319 318 319 319 318 318 317 316 315 315 315 316 317 318 318 318 318 318 319 320 320 320 320 321 320 320 319 319 318 318 318 319 320 322 324 325 325 324 322 321 321 320 318 317 316 315 315 315 315 316 316 317 316 315 314 313 312 312 314 315 316 316 317 318 320 322 323 324 324 325 323 323 323 323 323 323 324 324 325 326 325 325 324 324 323
319 319 318 319 318 318 317 316 316 315 314 315 315 317 317 316 316 318 318 319 318 318 319 319 319 319 318 317 316 316 316 317 317 319 321 322 322 322 321 320 320 319 318 317 316 315 314 314 314 315 315 316 315 314 313 312 310 310 310 311 311 312 313 314 315 317 318 318 317 317 316 316 316 316 316 315 315 317 317 318 318 318 317 317 317
319 319 319 318 318 319 318 318 318 317 316 315 315 315 316 315 314 316 317 316 316 316 316 317 317 317 317 316 315 315 314 314 314 315 317 320 321 321 321 320 319 319 318 316 315 314 312 312 311 313 313 313 313 312 312 311 310 309 310 310 309 310 310 310 311 311 312 311 311 311 311 310 311 310 311 310 310 311 311 311 311 311 312 312 312
318 319 319 319 319 319 318 318 319 319 317 316 315 315 316 315 314 315 315 314 314 314 314 314 316 316 316 315 314 314 314 314 313 313 315 317 319 319 319 319 318 317 317 316 315 314 312 311 309 309 310 311 311 310 310 310 309 310 311 310 308 309 309 309 309 309 309 309 309 309 309 309 309 309 309 309 309 309 309 310 310 310 310 310 310
318 319 319 319 319 319 318 318 319 319 319 317 316 316 316 315 315 315 315 314 314 313 313 313 314 314 315 315 314 313 314 313 313 314 314 315 317 318 318 317 317 317 316 316 315 314 311 310 308 307 307 309 309 308 308 308 308 309 310 308 307 307 307 308 308 308 308 309 308 309 309 309 309 309 309 309 309 309 309 309 309 309 309 309 309
318 319 319 319 319 319 318 319 319 319 320 319 318 318 317 316 315 315 316 316 315 314 314 314 314 314 314 314 314 313 314 314 314 314 313 313 314 315 316 316 316 317 316 316 316 314 311 309 308 306 306 306 307 307 307 306 306 308 309 307 306 306 306 306 307 307 307 307 308 308 308 308 308 308 308 308 309 308 309 309 309 309 308 309 309
317 318 319 319 319 319 320 319 319 319 320 319 319 319 319 318 317 316 316 317 316 315 315 315 315 314 314 314 314 313 314 314 314 314 314 313 312 312 312 314 315 316 316 316 316 314 311 309 307 306 305 306 306 306 305 303 302 305 307 307 304 304 305 305 304 305 306 306 307 307 307 307 307 308 308 308 308 308 308 308 308 308 309 309 309
319 319 319 319 319 320 320 320 320 320 320 320 319 319 319 319 319 318 318 318 317 316 315 314 314 315 314 314 313 313 314 314 313 313 312 312 313 312 311 313 314 315 315 315 315 313 311 309 307 306 306 306 305 306 306 304 303 303 306 306 303 303 306 306 303 301 302 303 303 304 305 306 306 307 307 307 307 307 308 308 308 308 308 308 308
320 320 320 320 320 320 320 320 320 320 320 320 320 320 320 320 319 319 319 319 318 317 317 316 315 315 314 313 313 313 314 313 312 312 312 312 312 311 311 312 313 313 314 314 313 311 309 308 307 307 307 307 306 306 307 307 306 305 305 306 304 305 307 307 305 302 300 300 300 300 301 301 302 303 303 304 304 305 305 306 306 307 307 307 308
319 319 320 320 320 321 321 321 321 321 321 321 321 321 321 321 320 320 319 319 319 319 319 318 317 316 315 314 313 313 312 312 312 312 311 311 311 310 310 310 311 312 312 312 311 310 309 309 309 308 308 308 307 307 307 307 307 306 306 306 305 305 305 306 307 305 301 300 300 299 299 299 299 299 299 299 300 300 301 301 302 302 303 304 305
320 320 319 320 321 321 321 321 321 321 321 322 322 322 322 321 321 321 321 320 320 320 320 319 319 318 317 316 315 314 314 313 313 312 312 311 311 310 309 309 310 310 311 312 312 312 312 311 311 310 310 310 308 308 307 307 308 307 307 307 306 306 306 305 306 305 303 302 301 299 299 299 298 298 298 298 298 298 298 298 298 299 299 299 300
321 321 321 321 322 322 322 322 321 322 321 322 322 322 322 322 321 321 321 321 321 321 320 320 320 319 319 318 317 316 316 316 315 313 312 312 311 310 310 311 312 313 314 314 314 314 314 313 312 311 310 310 309 308 308 308 308 307 307 307 307 307 307 307 306 305 304 304 303 301 300 299 299 299 298 298 298 298 298 298 298 298 297 298 298
322 322 323 323 323 322 323 322 322 322 322 322 322 322 323 322 322 322 322 321 322 322 321 321 321 320 320 319 319 318 317 317 316 315 314 313 312 311 311 311 313 314 314 315 315 315 315 314 313 311 311 310 309 309 308 308 309 309 308 308 307 307 307 308 307 306 305 304 304 304 302 301 301 300 299 298 298 297 297 297 297 297 297 297 297
322 323 323 323 323 323 323 322 322 322 322 322 322 322 322 322 323 323 322 322 322 322 322 321 321 321 321 320 320 319 319 318 318 317 316 315 313 312 311 311 312 314 315 315 315 315 316 315 314 312 312 311 311 310 308 308 309 310 309 309 308 308 308 308 308 307 305 305 305 304 303 302 301 300 299 298 298 298 297 296 296 296 296 296 296
324 324 324 323 323 323 323 322 322 322 322 322 322 322 322 323 323 323 323 323 322 322 322 321 321 322 322 321 321 320 320 320 319 318 318 316 315 314 313 312 311 311 314 315 315 315 316 315 315 314 313 312 312 311 309 308 309 309 309 309 309 309 309 308 308 307 306 306 305 304 302 301 301 300 299 299 299 299 298 296 296 296 296 296 296
324 324 324 323 323 323 323 322 322 322 322 322 323 323 323 323 323 323 323 323 323 323 322 322 322 321 321 321 321 321 321 320 319 319 318 317 316 315 314 313 311 311 312 313 313 314 315 315 315 314 313 313 312 311 310 309 310 310 309 308 308 309 308 308 307 307 307 306 305 304 302 301 302 301 301 300 301 300 299 297 297 297 297 296 295
324 324 324 323 324 324 323 323 323 323 323 323 322 322 322 323 323 323 323 324 323 323 323 323 322 320 320 319 320 321 320 320 319 318 318 317 317 316 315 314 312 311 311 312 312 313 314 314 314 314 313 313 312 312 311 311 310 310 308 308 308 308 307 307 307 307 307 305 304 303 302 301 302 302 302 302 302 301 300 299 300 300 299 296 295
322 321 323 323 323 323 323 323 323 323 323 322 320 319 320 321 321 322 322 322 323 323 323 323 322 321 320 320 320 319 319 318 318 318 318 317 315 315 315 314 312 311 310 311 311 312 313 314 314 313 313 313 312 311 310 310 309 308 308 307 307 307 307 307 307 307 306 305 304 303 302 301 301 302 302 301 301 301 301 301 301 301 298 295 294
320 320 321 323 322 322 322 322 323 323 322 320 319 319 319 319 319 320 321 320 321 321 321 321 321 321 321 320 320 319 318 318 318 318 317 316 315 315 314 313 311 310 310 311 311 311 312 312 312 312 312 311 311 310 309 310 309 308 307 307 306 307 307 307 307 306 305 304 303 302 301 300 301 301 301 301 301 301 302 302 300 298 296 294 294
321 321 322 322 322 322 323 323 322 321 318 315 315 314 315 315 315 317 319 319 319 319 319 318 318 319 319 318 318 319 319 317 317 318 317 316 316 315 315 314 312 311 310 310 310 311 311 311 311 311 310 310 309 309 309 309 308 307 306 306 306 306 306 306 306 306 305 303 301 301 300 300 300 300 300 301 301 301 301 301 299 298 296 295 294
321 322 322 322 321 321 321 320 319 316 311 309 310 309 309 310 309 312 316 317 318 319 319 318 318 317 317 316 316 317 317 316 316 317 317 317 315 315 315 314 312 310 308 306 306 307 308 309 310 310 309 308 308 308 307 305 304 305 305 305 305 305 304 305 304 304 303 301 300 300 300 300 300 300 300 301 301 300 301 300 299 298 297 296 295
320 321 321 320 319 318 317 316 316 313 309 307 308 307 307 307 306 308 311 312 314 317 318 318 318 318 317 317 316 315 316 316 316 316 316 316 314 313 312 311 309 308 306 304 303 304 305 307 308 309 307 306 305 305 304 302 301 302 302 302 303 303 302 302 302 301 301 300 300 300 300 300 300 299 300 300 300 300 300 300 299 298 297 296 295
318 317 317 316 315 315 314 313 313 311 307 306 307 306 306 305 304 307 310 311 314 316 317 318 318 317 317 317 316 316 316 315 314 314 315 315 313 311 310 308 307 306 304 303 303 304 304 305 306 306 305 303 302 302 301 300 299 299 299 300 300 300 300 301 301 301 300 300 300 300 300 300 299 299 299 300 300 300 300 299 298 298 297 296 296
315 314 314 313 312 312 312 311 311 309 306 306 307 306 305 304 305 309 312 313 315 316 316 317 316 316 317 316 315 315 314 313 312 312 312 313 312 311 310 308 307 305 303 302 303 303 303 303 304 304 303 302 301 300 299 298 297 297 298 299 299 300 300 301 301 300 300 300 300 300 300 299 299 299 299 299 299 299 299 299 298 298 297 297 296
312 312 312 312 311 311 311 311 312 310 308 307 307 306 305 305 307 311 312 311 313 313 314 315 314 313 314 313 313 314 311 309 309 309 309 311 311 311 310 309 307 305 303 302 302 303 303 303 302 301 300 300 299 297 297 296 295 295 296 298 299 300 300 300 300 299 299 299 299 299 299 299 299 299 299 299 298 298 298 298 298 298 298 297 296
311 311 311 311 311 311 312 312 311 311 309 307 307 307 305 305 307 311 310 310 311 311 312 312 311 310 311 310 310 310 309 307 307 307 307 309 310 309 309 308 308 307 304 302 302 302 301 300 299 298 298 297 296 296 295 295 294 293 294 296 298 298 298 298 299 299 299 299 298 298 298 298 298 298 298 298 298 298 298 298 298 298 297 297 297
311 310 310 310 311 311 312 310 309 310 310 308 307 307 306 305 306 309 310 310 310 310 310 311 310 308 308 308 308 307 307 307 306 306 306 307 308 308 308 308 308 307 304 301 300 299 298 298 297 298 298 297 297 296 296 296 294 293 294 295 296 297 297 298 298 298 298 298 298 298 297 297 297 297 297 297 298 298 298 298 297 297 297 297 297
Wind_Speed
7 7 7 6 6 6 6 6 6 6 5 5 4 5 4 4 4 5 5 5 5 5 4 4 4 4 4 5 7 8 8 7 6 6 5 5 5 5 4 4 4 5 6 7 6 5 5 5 5 5 4 3 3 2 2 1 3 4 5 6 6 6 5 5 5 5 5 5 5 5 5 6 6 6 7 7 7 7 7 7 6 6 6 7 7
7 7 7 6 5 5 5 6 6 6 5 5 4 4 5 4 4 4 4 5 5 5 4 4 4 4 4 5 6 6 6 7 7 6 6 5 6 6 5 4 4 5 6 7 7 6 6 6 5 5 5 4 4 3 3 1 2 2 4 5 5 6 6 6 4 4 4 4 4 4 4 5 5 5 5 6 7 6 6 6 6 5 5 6 7
9 8 7 6 5 5 5 6 6 6 5 5 5 4 5 5 4 4 4 4 4 4 4 3 3 3 3 4 4 4 5 5 6 6 6 6 6 6 5 5 4 5 5 6 8 8 7 7 6 6 5 4 5 4 3 1 2 1 2 3 5 6 6 6 5 4 3 3 3 3 3 4 4 4 4 5 5 5 6 6 6 6 6 6 7
10 9 7 6 6 6 6 6 6 6 5 5 5 5 5 5 5 4 4 4 4 4 4 4 4 3 3 3 3 4 4 5 5 5 5 6 6 6 6 5 5 5 5 6 7 9 9 8 7 6 6 5 5 5 4 1 2 2 1 1 4 5 5 6 5 4 4 3 3 3 3 2 3 3 3 3 4 5 5 5 6 6 5 6 6
8 8 8 6 6 6 6 6 5 5 5 6 5 6 6 6 5 4 4 5 5 5 5 5 5 4 3 3 3 4 4 4 4 4 4 5 5 6 6 5 5 5 6 6 7 9 10 9 8 8 6 5 5 5 5 3 2 2 2 2 3 3 4 6 5 4 4 4 4 3 3 2 2 2 2 2 3 4 4 4 5 5 5 5 5
5 6 6 5 5 5 5 5 4 5 6 6 6 6 7 6 5 4 4 4 5 5 5 5 5 5 4 3 4 4 4 4 3 3 4 4 4 5 5 6 6 5 6 7 7 8 9 8 8 9 8 6 5 5 4 4 4 2 3 4 3 1 2 4 4 4 4 4 4 4 3 3 1 1 1 1 2 3 3 4 4 4 4 5 5
4 5 5 4 4 4 4 4 3 4 5 5 6 7 7 6 4 4 4 4 5 5 5 5 5 4 4 3 4 3 4 5 5 5 5 4 4 4 4 5 5 5 7 9 7 7 7 7 6 6 7 7 5 5 5 4 4 3 4 4 2 0 2 3 3 4 4 4 4 4 3 3 2 2 3 1 1 1 2 3 4 4 3 3 4
3 4 5 5 4 4 3 3 3 3 3 4 6 7 5 4 3 3 4 5 6 5 5 5 4 4 3 4 4 4 4 4 5 6 5 5 5 4 4 5 5 6 8 8 7 6 5 5 5 4 4 5 4 4 4 5 4 3 3 4 3 0 1 2 3 3 3 3 3 3 3 3 3 3 2 1 1 0 0 1 3 3 3 3 3
3 3 4 3 3 3 3 3 2 3 3 3 5 4 3 2 2 3 3 5 6 5 5 4 4 4 4 4 4 4 4 3 3 4 5 7 7 5 6 6 6 8 8 6 5 5 5 3 3 2 2 2 2 2 3 4 4 3 3 3 3 1 1 2 4 3 3 3 2 2 2 2 3 3 1 0 1 1 0 0 1 2 3 3 3
4 4 3 2 1 1 3 3 3 2 2 3 3 3 2 2 2 3 4 4 5 4 3 3 4 4 4 5 4 4 4 3 3 4 5 6 6 6 6 6 7 9 9 8 7 4 5 4 3 3 3 3 2 1 2 3 4 4 4 4 3 2 2 2 4 4 4 2 0 1 2 2 3 2 1 1 1 1 1 1 2 2 2 3 3
4 4 4 3 2 3 3 3 2 2 2 3 3 3 2 3 3 5 4 3 4 3 2 2 3 4 4 5 5 4 4 3 3 4 4 4 4 5 6 7 6 8 8 8 8 5 6 5 5 5 5 5 3 1 1 2 3 5 6 5 4 4 5 4 4 5 4 3 2 1 3 3 3 2 2 2 2 1 1 2 2 2 2 3 4
6 5 5 4 4 4 3 3 3 3 3 3 3 2 3 3 4 6 5 3 3 2 2 3 4 4 4 4 4 4 4 4 4 4 3 2 2 3 4 5 6 7 7 6 6 5 6 6 6 6 5 4 4 2 2 1 1 2 5 6 6 6 5 5 5 5 4 3 4 4 3 3 4 3 2 2 3 3 3 2 2 3 3 3 4
6 6 7 6 6 5 4 3 3 2 2 2 2 2 3 4 4 7 7 5 3 2 2 4 5 5 4 5 5 4 4 4 5 5 4 3 2 2 2 3 5 5 2 3 4 4 5 6 7 6 4 4 4 3 3 3 2 2 3 5 6 7 6 6 5 5 4 2 4 6 5 4 4 3 2 2 3 4 5 4 4 4 3 3 4
7 7 7 6 6 5 4 4 3 2 2 2 2 2 2 4 5 6 6 4 4 3 3 4 5 4 4 4 4 5 5 5 5 5 4 4 4 3 2 1 2 1 3 5 5 4 4 5 6 5 5 5 3 3 2 3 3 4 5 5 5 6 6 7 7 7 6 5 5 6 6 5 4 3 2 2 3 4 5 5 5 4 4 4 4
7 7 6 6 5 5 5 4 3 2 2 3 2 2 2 3 4 5 5 3 4 3 2 4 5 4 4 4 3 4 4 4 5 6 5 4 3 3 3 3 3 2 3 3 4 3 3 4 4 4 5 4 3 4 2 2 4 6 7 7 7 7 6 7 8 8 8 8 7 6 7 7 6 5 4 4 4 5 5 6 6 5 5 5 5
7 6 6 6 6 6 5 5 4 3 3 3 3 3 2 2 2 3 3 2 3 3 2 3 4 4 4 3 3 3 2 2 5 6 5 4 3 3 3 4 2 2 1 2 3 1 2 3 3 3 1 1 2 4 3 3 5 6 7 9 9 9 8 7 8 8 9 9 8 7 7 8 8 7 6 6 6 6 6 7 7 6 6 6 6
6 6 6 6 6 6 5 5 4 4 4 4 5 4 3 2 2 1 2 3 2 4 3 3 4 4 4 3 3 3 0 2 4 4 2 1 2 1 1 3 3 2 1 2 3 2 2 3 3 2 1 1 1 2 2 3 4 4 5 7 9 11 10 10 9 9 9 9 9 9 10 10 10 10 9 8 8 8 8 8 8 8 7 7 7
6 6 6 6 6 6 5 5 5 4 4 4 4 4 4 4 3 2 0 2 2 3 4 5 4 3 2 1 2 1 1 2 3 1 1 2 3 3 3 2 2 2 2 4 4 4 5 4 3 3 3 2 0 1 1 1 2 3 3 4 7 10 11 11 11 10 9 9 9 9 10 11 12 13 13 11 11 11 11 11 11 10 9 9 8
6 6 6 6 6 6 5 5 5 4 4 4 4 4 4 4 4 3 3 2 1 2 3 4 4 3 2 1 1 2 2 3 2 1 2 1 3 5 4 5 5 5 7 7 5 5 5 5 4 3 4 4 3 4 4 3 2 1 2 2 3 5 8 10 11 11 11 11 11 11 11 11 12 14 15 15 14 13 14 14 13 12 11 10 10
6 6 6 7 6 6 6 5 5 4 4 4 5 4 4 5 5 5 4 4 4 2 1 0 1 2 3 2 2 2 2 3 4 3 1 3 2 4 5 7 9 7 7 7 6 6 6 5 5 4 4 5 5 6 5 4 4 3 2 3 2 1 3 5 5 6 7 9 10 10 11 11 12 14 15 16 16 16 16 17 16 14 13 12 12
7 7 7 7 7 7 7 7 6 6 5 6 6 5 5 5 6 6 6 5 5 5 4 4 2 1 2 2 2 2 2 1 2 3 2 3 2 3 5 6 8 8 7 7 7 7 7 7 7 6 6 5 5 6 5 4 3 3 3 4 4 4 3 3 3 3 3 2 3 2 3 4 7 10 13 15 17 17 17 17 16 16 15 15 14
7 7 7 7 7 8 8 8 8 7 7 7 7 6 6 7 7 7 6 6 5 6 6 5 5 3 2 1 1 1 2 1 1 2 3 3 3 4 6 5 6 8 8 8 9 9 9 10 10 9 8 7 7 7 6 5 5 5 5 4 5 6 5 3 4 3 2 2 2 3 4 4 4 5 8 11 13 15 15 15 15 15 14 14 15
7 7 7 7 8 9 9 9 8 8 8 7 7 7 7 6 6 6 6 5 5 5 6 6 5 5 4 3 2 2 2 2 2 0 1 2 3 4 6 7 8 8 8 8 9 9 11 11 11 11 11 10 9 9 8 8 8 8 6 6 6 6 5 3 3 3 3 3 3 3 3 3 3 4 5 5 6 8 10 11 13 13 13 13 15
8 7 7 7 8 9 9 9 9 9 8 8 7 7 6 6 6 6 6 6 6 6 6 6 5 5 5 5 4 4 4 4 4 3 1 1 3 4 6 8 8 9 10 9 9 10 11 11 12 12 12 11 11 11 11 11 10 8 7 7 6 5 5 3 2 2 2 3 4 4 4 3 2 3 4 4 4 3 4 6 9 10 11 11 11
8 7 7 7 8 8 9 9 10 9 9 8 8 7 7 7 7 7 7 7 7 6 6 6 6 5 5 5 5 5 5 5 5 4 2 2 4 4 6 7 7 8 9 8 9 10 11 11 11 11 11 11 11 12 11 11 11 10 8 8 7 7 6 4 3 3 2 2 3 3 3 2 2 3 4 5 5 4 3 4 5 6 7 8 8
9 8 7 7 8 8 9 10 10 10 9 9 9 8 7 7 8 8 7 7 7 7 7 7 6 6 6 6 6 6 6 5 5 4 3 3 4 4 5 6 6 7 8 7 8 8 10 10 10 10 11 11 11 11 11 11 11 10 9 9 8 7 6 5 4 3 2 2 2 2 3 4 4 4 5 6 6 6 6 6 6 7 7 8 8
9 8 7 7 8 8 9 9 9 9 9 9 9 8 8 8 8 8 7 7 7 7 7 7 7 7 7 7 7 7 7 7 6 5 4 3 3 4 4 4 4 4 5 6 7 8 8 9 10 10 9 10 10 10 10 10 10 10 10 9 8 7 5 4 3 3 2 1 2 2 3 4 4 4 5 5 6 6 6 7 7 8 8 9 10
10 9 8 7 8 8 8 8 8 9 9 9 9 8 8 8 8 7 7 7 7 7 7 7 7 7 7 7 7 7 8 7 7 7 5 3 2 3 3 2 2 3 4 4 6 7 6 7 8 9 8 9 9 8 8 8 8 9 8 8 7 6 5 4 3 2 1 0 1 2 3 4 4 4 5 5 5 5 6 6 7 7 8 8 9
11 10 9 8 8 8 8 8 8 8 8 8 9 9 8 8 7 7 7 6 7 7 7 7 7 7 7 7 7 7 7 7 7 7 6 4 1 1 1 1 1 1 3 3 3 5 5 5 7 7 7 7 7 7 7 7 8 8 7 6 6 5 5 3 2 2 1 1 2 3 3 4 4 4 5 5 6 6 6 6 7 8 8 9 10
13 11 10 10 9 9 9 8 8 7 7 7 8 8 8 8 7 7 6 5 6 6 6 7 7 6 7 7 7 7 7 6 7 6 6 4 2 0 2 2 2 2 1 3 3 4 5 5 6 6 6 6 6 6 6 5 6 7 6 5 5 4 3 3 2 2 2 2 3 3 4 4 5 5 6 6 6 7 7 8 9 9 9 10 10
14 13 11 11 10 9 9 9 8 8 7 7 7 7 7 7 6 6 5 5 5 5 5 5 5 6 6 6 6 6 6 5 5 5 5 5 3 2 1 2 1 2 0 3 3 3 4 5 5 5 5 5 5 5 5 4 4 6 5 3 2 3 4 4 3 3 4 4 4 5 5 6 6 7 7 7 8 8 9 9 10 10 10 11 11
14 13 12 11 10 10 10 9 9 8 7 7 6 6 6 5 5 5 4 4 4 5 5 4 4 4 4 5 5 5 4 4 5 5 5 5 4 4 3 2 2 1 0 2 4 5 4 4 5 5 5 4 4 4 4 3 4 5 4 2 2 4 3 4 6 5 5 7 7 7 8 8 9 9 9 10 10 10 11 11 11 12 12 12 12
14 13 12 11 11 11 10 10 9 9 8 7 6 5 5 5 4 4 4 3 3 4 4 3 4 3 3 3 4 3 3 3 3 3 4 4 4 4 4 4 4 3 2 3 6 7 6 4 4 4 3 2 2 3 3 2 2 2 2 2 2 3 1 3 6 7 7 7 8 9 9 10 11 11 12 12 13 13 13 14 14 14 15 15 15
14 14 13 12 11 10 10 10 9 8 8 7 6 5 5 5 4 3 3 2 2 2 2 2 2 2 2 2 2 2 2 2 1 1 2 2 2 3 4 4 5 4 3 4 6 7 6 5 4 4 3 2 1 2 2 2 1 0 1 1 1 2 2 3 4 7 9 9 8 9 9 10 11 12 13 13 14 15 15 16 16 17 17 18 18
13 13 13 13 12 11 10 10 9 8 7 7 6 5 5 4 3 2 2 2 1 2 1 1 2 2 1 1 1 1 1 1 0 0 1 1 1 2 3 3 4 5 4 3 4 5 6 6 5 5 4 2 1 2 2 2 1 0 1 0 1 1 2 4 3 5 9 10 8 8 9 10 11 11 12 14 15 16 16 17 17 18 18 19 19
13 12 13 13 12 12 11 11 10 10 9 8 6 5 5 4 2 2 2 2 2 2 2 2 2 2 2 2 2 2 2 2 2 2 1 2 2 2 3 3 4 5 4 3 2 2 4 5 4 4 4 3 2 2 1 1 1 1 1 1 2 2 3 5 4 6 10 12 11 10 11 11 11 11 12 14 15 16 17 18 18 19 19 20 20
13 12 12 12 12 11 11 11 11 10 9 9 7 7 6 4 3 3 4 4 4 4 4 3 3 3 3 4 4 4 4 4 4 3 2 3 3 2 3 4 5 5 4 3 2 2 3 4 5 4 4 4 3 2 1 1 1 2 2 2 3 3 3 5 5 6 10 13 13 14 15 15 15 15 15 15 14 15 15 16 17 18 19 20 20
13 12 12 12 11 10 10 9 9 9 8 7 7 7 6 5 4 4 4 5 5 5 5 4 4 4 5 6 6 5 6 6 5 5 4 4 5 5 5 5 4 5 4 4 3 3 3 3 4 4 4 4 3 2 1 2 3 3 4 5 5 4 4 6 7 6 7 9 11 13 15 14 16 18 19 18 17 14 12 13 15 16 18 19 20
12 12 11 11 11 10 9 9 8 8 7 6 6 6 5 5 5 4 4 5 5 5 6 5 4 4 4 5 6 7 8 7 6 7 6 6 7 7 6 6 5 5 6 6 5 5 4 4 4 4 4 4 3 3 2 1 2 3 3 7 8 7 7 8 9 8 7 7 10 13 15 16 17 18 19 19 18 16 14 14 14 14 16 18 20
10 10 10 10 9 8 9 8 7 7 6 6 5 5 5 5 4 4 3 4 4 5 5 4 3 4 5 6 6 6 7 7 7 8 7 7 7 7 8 8 7 7 8 7 7 7 6 6 6 6 6 5 4 3 3 3 3 3 4 7 9 9 9 10 11 10 8 8 10 12 15 16 16 16 17 17 16 16 18 18 15 13 14 16 17
7 7 7 8 8 7 7 7 6 6 5 5 6 6 6 4 3 3 3 4 4 4 4 4 4 6 8 8 7 7 8 9 10 10 10 11 11 9 9 11 10 8 8 8 8 9 8 9 9 7 8 9 7 5 5 4 3 4 5 6 8 10 11 12 12 11 8 9 12 12 13 14 13 14 14 13 13 15 17 16 11 9 13 17 17
7 7 6 6 7 7 7 6 6 5 4 5 6 6 5 4 3 2 3 3 3 3 4 4 4 5 7 7 7 8 9 9 11 12 11 14 17 15 12 11 10 10 10 10 11 10 9 9 9 8 8 8 6 4 5 4 3 3 5 6 8 10 11 12 13 11 7 8 11 14 15 15 13 14 14 12 12 13 13 11 10 13 17 18 17
8 9 8 5 5 5 6 6 5 4 4 4 4 3 3 3 3 3 2 1 1 2 2 3 3 4 4 3 4 5 5 5 8 9 9 12 15 17 17 16 14 13 12 12 11 10 9 8 6 5 6 6 5 5 6 5 3 4 5 7 9 10 11 12 14 13 7 6 11 16 17 15 13 14 15 14 13 12 12 13 17 20 20 17 15
6 6 6 4 4 4 5 6 5 6 6 7 7 6 5 4 4 3 1 0 1 1 1 1 1 2 2 1 1 1 2 3 5 6 7 8 9 12 15 18 18 17 16 15 12 8 6 6 5 5 5 5 6 6 6 5 5 6 7 8 9 10 11 12 14 14 11 9 13 17 18 15 13 14 16 14 13 14 15 18 21 22 21 19 18
5 5 4 5 6 6 7 8 8 9 10 9 8 6 5 4 3 3 2 1 0 0 1 1 1 1 1 2 2 1 2 2 3 3 5 6 7 8 11 14 17 18 18 17 16 12 7 6 6 6 5 4 4 4 6 6 7 8 9 10 11 11 12 13 14 16 16 15 15 16 17 16 13 14 15 14 14 14 15 17 20 22 23 23 21
8 7 7 7 8 9 9 10 9 9 9 8 7 6 5 3 2 2 2 1 1 0 0 1 2 2 2 3 3 3 2 1 1 2 3 4 5 5 5 8 10 11 12 12 12 10 8 6 4 4 5 5 4 5 9 10 8 8 9 11 12 13 15 16 17 19 18 16 13 14 15 15 13 14 16 16 15 14 14 16 19 21 23 23 22
10 10 9 10 10 9 9 9 9 9 9 8 7 6 5 4 3 3 2 2 2 1 1 0 1 2 2 3 4 3 1 1 2 2 1 2 2 2 4 6 6 7 9 10 9 7 6 5 3 2 4 7 5 7 10 10 9 9 10 12 14 15 16 17 17 17 16 14 12 12 14 15 13 15 17 16 15 16 15 16 18 21 22 21 21
10 10 10 10 9 9 8 8 8 9 9 8 7 7 6 5 5 4 2 2 3 3 2 2 2 1 1 1 1 1 3 3 2 2 1 3 3 4 6 7 7 7 9 10 9 8 7 6 5 5 7 9 9 10 11 11 11 10 11 13 14 14 14 15 14 15 14 12 10 11 15 16 14 15 17 16 16 17 17 16 18 19 19 18 19
9 9 9 9 8 8 8 7 7 8 9 8 7 6 6 6 5 3 1 2 3 3 3 3 3 2 3 3 3 4 5 5 5 5 3 3 4 4 5 6 6 6 6 7 7 7 7 8 8 9 9 10 11 12 13 14 14 11 10 12 12 12 13 14 15 15 14 13 12 13 15 16 14 15 17 16 17 18 18 17 15 15 16 17 16
9 9 9 8 8 8 7 7 7 8 8 8 6 6 5 6 5 2 0 2 3 3 4 4 4 4 5 6 5 5 4 5 5 5 5 4 3 4 4 5 5 4 4 4 5 6 8 8 9 10 11 12 13 15 14 14 13 10 10 11 12 13 14 15 15 15 15 15 13 10 11 15 15 14 16 17 17 17 16 14 13 13 14 16 15
9 9 8 8 8 7 7 8 8 7 8 8 7 6 5 5 5 2 1 1 2 2 3 4 6 6 6 5 4 4 4 4 4 4 5 4 2 3 3 5 5 3 2 2 2 4 6 7 8 9 11 12 13 13 12 13 13 12 11 12 12 13 14 14 15 14 13 12 9 7 11 17 15 14 15 16 15 14 13 13 13 13 14 15 15
Wind_Direction
184 191 191 190 192 192 193 192 190 186 184 187 192 199 200 199 196 194 194 191 188 185 184 184 188 200 218 218 218 218 211 214 211 200 196 175 178 203 195 175 170 169 168 177 187 189 186 184 181 176 169 170 176 236 279 1 31 48 57 59 58 58 59 61 76 91 93 93 90 90 92 91 85 85 93 97 92 86 84 78 74 80 89 84 78
186 199 197 193 194 196 200 201 198 196 189 190 199 204 207 203 200 201 195 193 188 182 189 192 188 190 212 221 216 218 210 212 216 210 211 185 175 199 202 188 177 178 177 174 181 189 193 192 188 182 181 177 169 211 249 323 22 38 54 59 53 49 46 41 51 80 91 91 91 90 91 97 99 94 96 101 101 100 99 92 82 82 85 83 81
182 191 194 197 197 198 205 206 203 202 196 194 203 207 212 212 210 211 199 195 185 184 199 204 205 191 200 220 215 219 213 212 219 216 215 198 183 189 198 202 189 184 182 176 181 183 187 195 196 190 189 180 169 190 222 304 12 11 44 50 38 36 35 29 29 43 59 73 76 74 80 94 104 101 95 100 106 106 105 103 94 87 81 80 83
191 192 190 194 193 195 202 206 205 200 198 196 199 207 213 214 212 214 206 202 197 201 210 214 228 216 199 211 213 223 222 216 221 217 210 203 196 190 195 208 201 197 189 177 181 181 182 190 196 194 192 187 174 178 193 215 342 323 305 23 14 19 28 24 20 21 28 44 53 54 71 79 92 107 105 101 110 110 106 107 105 99 90 87 87
204 200 196 199 194 194 195 203 204 193 197 196 198 210 216 214 207 214 209 201 209 211 215 218 227 234 224 215 215 227 231 225 220 219 215 207 209 208 202 202 201 204 200 186 180 181 185 189 191 192 191 191 186 184 183 188 246 294 284 291 325 355 22 22 18 16 19 28 29 33 54 60 72 101 102 95 104 113 115 111 109 108 103 98 95
199 197 199 207 200 191 190 201 199 190 199 198 205 219 226 223 213 221 218 204 210 209 218 223 220 225 225 228 228 231 237 232 220 222 227 212 210 219 214 205 200 205 212 206 188 182 188 188 190 191 189 187 187 192 192 190 202 224 249 265 282 320 16 23 24 25 20 15 15 21 33 36 47 61 36 68 96 109 124 119 112 109 108 108 106
196 192 190 197 188 181 189 199 194 195 206 204 218 227 229 231 226 233 231 222 218 206 215 222 218 221 216 225 231 226 233 232 228 229 232 230 221 222 223 215 209 209 213 209 194 185 186 183 184 187 188 191 190 194 198 194 197 199 219 256 280 7 20 22 25 29 33 22 9 6 16 20 20 7 355 9 96 109 130 123 122 123 121 120 119
184 185 192 190 181 182 182 190 199 207 211 214 235 240 232 228 225 236 235 234 233 213 208 216 216 221 215 221 224 221 230 224 225 230 231 240 241 235 229 223 218 214 211 213 206 190 187 182 173 169 177 188 192 187 193 194 197 198 206 255 287 327 30 11 6 6 20 31 23 7 2 3 3 2 358 358 23 57 136 118 135 143 140 136 130
156 174 198 197 197 191 165 160 178 195 199 214 248 261 258 246 222 232 235 237 243 225 209 215 213 217 217 219 216 212 221 218 216 225 229 236 241 243 238 231 222 215 210 220 219 173 159 179 174 167 171 186 192 163 183 194 193 202 206 234 267 297 16 343 340 334 339 5 33 23 355 328 339 352 349 261 340 340 224 194 162 169 160 153 153
147 157 166 191 216 158 141 147 145 169 191 211 246 260 253 251 234 235 238 238 249 245 228 225 218 217 210 206 210 203 202 202 207 219 227 232 235 241 245 239 228 222 215 218 223 163 138 163 173 188 202 199 212 168 167 184 185 201 210 211 222 225 229 287 315 317 318 307 290 32 15 344 334 331 289 252 295 321 224 215 195 203 190 174 173
134 139 140 171 177 127 140 158 151 188 217 226 240 240 224 233 238 240 245 244 246 250 256 249 228 222 207 202 203 197 196 196 201 211 216 223 232 239 247 245 235 230 221 215 220 188 154 161 168 195 205 185 188 204 189 186 186 199 207 206 200 212 221 231 269 299 309 283 249 318 357 356 350 326 272 255 262 271 238 222 217 227 220 198 190
123 127 130 142 138 131 151 162 167 204 227 237 234 224 213 215 231 241 239 234 240 242 253 250 232 220 211 213 212 205 207 207 210 210 201 203 216 229 241 246 243 234 225 212 208 184 166 167 166 190 213 192 177 181 183 205 240 223 211 210 203 210 223 226 243 270 295 276 240 261 293 319 342 347 307 264 256 250 239 233 226 232 234 220 215
114 118 122 123 121 125 134 139 149 168 168 183 183 181 200 196 219 242 235 223 234 232 232 242 233 220 211 218 220 219 219 217 224 219 205 206 216 240 246 249 252 243 214 165 168 159 171 181 173 177 211 218 187 176 170 173 218 266 240 224 216 216 217 216 226 244 271 279 232 239 260 281 313 342 341 305 275 247 231 233 228 225 231 224 224
108 107 107 108 110 112 109 102 95 98 109 125 140 142 170 180 201 234 233 218 226 231 227 238 237 231 233 238 225 217 220 224 233 229 222 221 220 235 234 204 239 335 67 102 129 136 155 172 170 172 201 209 188 197 188 163 193 238 244 237 236 233 221 211 218 228 243 263 250 242 255 268 284 298 300 289 277 261 239 236 239 237 237 230 225
108 101 94 93 96 98 97 90 82 84 89 104 122 123 138 168 192 221 230 210 205 216 221 235 243 240 240 250 236 215 212 222 242 237 226 229 228 230 228 206 171 112 75 94 108 115 125 130 140 158 188 190 187 222 226 186 211 226 231 235 240 243 236 221 224 228 231 244 249 248 256 261 264 263 260 258 261 264 256 248 248 252 245 234 231
106 101 94 91 87 85 86 82 76 74 76 86 94 94 103 136 170 209 232 219 184 179 192 220 235 243 248 257 241 233 223 245 264 247 216 211 229 238 256 259 215 136 142 106 98 103 115 114 116 123 155 178 206 224 215 209 226 229 226 230 236 240 241 232 232 234 233 238 240 242 253 259 261 258 250 253 259 263 263 258 256 259 254 241 239
104 97 92 84 76 72 74 77 75 71 77 82 81 74 69 87 103 163 236 249 198 167 172 192 214 243 271 287 250 239 156 187 237 257 246 190 193 208 280 289 291 278 214 123 100 82 91 100 91 88 99 124 204 225 215 220 238 241 229 233 236 236 238 240 239 238 236 239 239 239 246 255 261 261 257 257 263 267 269 267 263 262 262 258 249
98 89 84 75 67 65 66 78 82 77 76 78 77 67 48 48 45 47 214 265 241 195 180 180 193 208 234 273 261 273 317 212 201 166 17 31 64 54 37 8 329 336 31 63 75 71 73 82 79 75 74 83 136 126 129 199 237 227 215 239 245 232 233 240 239 238 238 241 245 243 243 250 258 260 262 262 261 265 270 272 266 256 255 257 248
92 85 80 72 66 63 60 66 72 71 68 66 65 57 45 40 33 32 36 21 328 251 209 190 193 174 156 172 220 264 299 287 263 146 142 125 76 67 45 34 43 50 50 49 57 67 67 70 73 61 47 48 61 69 70 76 78 133 176 203 246 228 229 238 241 243 244 248 254 255 252 254 260 261 262 263 264 265 267 269 266 259 259 258 249
91 87 80 73 66 64 63 63 65 65 65 62 52 45 47 48 41 34 34 39 33 9 355 312 197 164 155 186 226 264 284 286 288 286 142 140 122 96 76 60 62 64 58 54 57 65 66 64 65 62 58 64 76 77 72 79 83 80 103 111 100 125 207 226 231 235 240 249 258 259 260 263 264 264 262 262 263 262 263 265 265 264 266 265 259
95 90 81 71 66 65 68 67 65 61 61 65 60 52 55 56 53 48 45 43 36 33 40 49 60 104 146 183 213 234 237 235 262 260 165 142 187 146 114 97 80 69 65 67 65 67 69 68 70 75 82 85 88 91 87 85 93 96 101 101 93 86 101 151 169 184 203 237 260 267 308 306 285 274 266 263 263 262 263 265 264 262 265 269 271
101 92 79 70 69 70 72 70 66 63 63 70 75 70 64 62 60 53 43 37 34 36 39 49 62 68 80 119 164 181 199 169 177 227 187 153 166 152 139 126 99 83 78 75 73 73 70 67 68 72 80 82 81 88 93 95 101 104 105 103 97 87 82 111 144 142 135 112 79 69 48 24 347 310 284 272 273 272 268 265 263 262 263 268 271
109 95 80 73 74 75 75 73 68 65 64 68 74 75 75 71 65 55 46 46 49 53 51 50 59 62 59 57 40 30 16 17 40 356 214 163 143 135 129 122 111 102 96 89 82 77 71 67 65 66 73 76 76 83 84 84 91 94 99 103 99 89 79 82 103 105 100 78 67 69 54 36 17 346 319 299 294 289 275 263 262 265 264 265 269
115 101 88 82 81 78 76 75 71 68 67 67 69 72 75 72 63 58 59 62 61 65 68 59 58 60 51 43 39 38 31 20 22 16 346 140 134 133 127 120 113 108 107 103 90 79 72 70 67 67 72 74 75 78 80 81 86 89 91 90 83 82 90 86 67 82 88 75 79 86 82 72 52 12 351 342 346 338 292 267 264 268 273 280 287
121 111 99 92 88 83 79 77 74 71 72 72 70 69 70 70 70 68 67 63 60 60 63 57 51 51 47 42 39 39 40 29 21 25 38 109 130 136 127 119 115 116 119 113 97 84 75 69 68 69 70 73 75 76 79 83 87 88 87 87 81 79 85 82 68 75 74 58 70 72 61 51 25 1 352 343 344 347 319 295 285 284 292 303 310
126 120 111 103 97 93 89 84 79 76 75 75 73 69 70 75 76 74 68 61 59 59 59 56 52 47 43 44 43 38 37 32 25 29 50 100 132 141 128 119 120 125 124 114 100 88 76 68 65 68 69 69 73 77 79 83 87 87 84 85 85 80 77 70 57 47 26 7 5 1 348 344 342 335 331 325 323 321 313 309 309 309 307 308 307
132 130 124 117 108 104 100 92 86 80 76 74 73 71 70 76 76 71 69 63 61 62 61 59 56 53 50 47 47 43 35 32 29 27 33 61 113 135 134 129 126 123 120 110 97 86 83 78 68 66 71 72 72 77 81 83 86 84 79 80 80 76 74 69 60 52 44 21 359 350 334 332 332 325 321 316 313 310 307 307 308 310 310 307 306
137 138 135 130 122 116 109 102 96 88 84 80 78 78 74 75 75 70 69 67 67 67 67 68 63 58 55 50 51 50 39 36 36 33 31 36 89 136 152 159 144 132 130 121 103 90 84 84 79 71 71 76 76 78 79 81 84 79 77 84 85 79 74 69 73 77 72 22 323 318 316 316 317 317 317 313 311 309 306 306 304 304 304 302 301
142 143 141 137 131 127 120 115 110 101 96 90 86 87 82 80 79 75 72 71 70 70 71 75 72 67 64 58 60 58 48 43 43 41 41 38 59 163 212 259 244 176 154 133 110 96 78 69 80 80 77 81 84 83 78 83 90 85 78 81 80 75 71 57 51 55 23 341 318 309 308 310 310 311 311 309 307 305 304 302 300 299 298 297 296
145 146 146 143 139 136 129 124 119 112 108 102 97 95 90 90 89 84 83 79 73 72 73 75 74 74 74 71 72 70 60 56 54 51 51 50 53 200 253 275 295 293 181 140 108 93 87 72 70 76 82 83 85 87 81 82 93 91 82 78 67 55 53 36 21 13 346 329 314 307 305 302 303 304 302 303 302 301 301 299 298 297 296 296 296
148 150 152 151 148 142 133 129 124 122 121 114 109 103 99 100 99 95 92 90 85 80 76 73 71 73 77 77 78 76 70 66 63 59 59 58 55 68 190 226 265 324 275 153 130 103 102 98 87 81 83 84 85 92 91 79 80 88 89 90 58 23 10 356 346 338 323 317 311 305 304 301 300 300 298 298 297 296 296 295 294 293 292 293 293
153 155 157 158 157 150 143 138 132 131 129 126 122 114 110 109 106 105 103 99 96 90 83 79 77 78 79 76 75 73 68 70 72 69 67 62 58 66 90 132 144 151 183 141 127 118 112 115 116 108 98 95 87 88 97 84 71 83 94 96 51 30 4 329 329 335 325 315 310 304 301 299 297 296 295 294 292 292 291 290 290 290 290 290 290
160 159 159 161 162 157 150 146 141 139 137 136 135 129 124 119 114 114 115 114 106 94 93 92 86 82 81 84 84 75 62 67 80 87 84 80 77 79 90 112 125 136 146 132 129 129 128 131 135 125 119 125 99 83 92 85 66 72 82 74 53 47 10 303 315 330 337 327 316 310 304 300 297 296 294 293 291 289 288 287 287 286 287 287 287
167 164 161 161 166 164 157 152 150 149 147 146 143 137 132 128 127 127 125 129 116 104 109 116 114 103 88 96 101 88 75 73 80 94 97 108 112 101 99 108 118 123 129 136 139 142 143 147 153 141 131 143 132 110 108 93 84 97 107 67 32 21 3 334 304 312 332 338 324 315 310 304 301 299 297 296 295 293 291 290 288 286 285 285 284
169 168 167 166 170 171 166 161 157 156 156 154 150 146 141 136 139 146 149 153 154 152 162 164 152 139 139 174 144 133 150 146 208 304 116 224 233 110 107 108 119 122 122 134 146 152 152 155 170 168 145 141 145 130 133 124 103 313 241 265 337 343 339 343 318 299 322 336 333 325 320 313 308 305 303 302 300 299 297 295 293 291 288 286 285
172 172 173 176 178 178 177 174 170 169 170 170 170 168 166 165 176 204 208 207 208 214 226 233 226 208 206 223 214 202 215 214 223 238 218 226 231 157 148 141 139 139 136 144 164 178 171 163 170 173 153 154 155 126 139 186 182 284 280 265 291 296 309 324 314 293 311 327 333 328 325 320 312 309 307 305 301 298 297 295 294 292 290 289 287
178 178 180 184 186 187 188 184 179 181 182 184 186 184 186 191 203 224 232 229 229 234 237 233 236 238 233 239 238 224 229 233 229 237 245 254 259 226 198 184 169 164 172 189 195 207 198 172 164 170 168 167 157 130 10 326 310 301 309 297 282 281 297 310 301 289 307 321 325 324 327 326 320 317 317 313 309 303 296 292 290 288 287 286 285
181 183 186 190 194 200 202 195 189 188 187 189 191 194 202 204 203 214 221 226 234 237 232 229 239 246 242 242 243 237 237 238 234 232 232 242 258 254 242 234 208 187 197 212 209 221 231 199 182 185 185 185 184 178 190 342 333 318 326 329 309 289 298 312 308 292 293 305 310 315 321 320 316 318 321 321 320 312 302 299 296 290 285 283 281
183 187 192 196 199 206 211 207 199 194 193 197 203 210 218 211 202 207 218 230 238 234 232 239 249 254 254 249 245 241 242 244 241 240 236 230 239 248 248 252 249 226 222 228 229 236 237 222 220 225 218 214 220 222 217 260 288 289 326 337 326 314 312 313 310 299 286 294 306 312 317 316 316 320 322 323 321 313 309 312 307 295 285 281 280
192 195 198 199 198 203 208 208 204 199 200 208 210 214 221 218 210 208 217 232 235 233 236 235 226 232 240 243 245 247 250 248 241 241 244 231 229 237 235 236 244 240 237 241 241 243 243 238 247 257 254 252 246 241 254 265 275 291 323 330 320 314 314 313 309 299 284 295 308 310 316 317 315 317 318 316 311 304 307 316 316 302 290 288 288
191 201 202 197 196 202 206 205 205 202 198 203 209 213 216 215 213 209 216 225 228 237 240 223 224 247 251 244 240 240 241 242 244 247 247 237 233 236 231 228 232 237 247 258 254 252 252 252 258 259 256 263 262 259 274 282 291 310 316 313 308 310 311 309 309 301 280 291 307 307 310 311 304 302 304 303 297 293 302 314 315 293 292 298 297
197 218 229 211 198 203 205 202 199 190 189 204 215 221 218 207 197 187 201 214 215 224 228 214 223 252 256 244 236 241 247 256 264 266 259 245 240 239 232 223 220 220 232 250 256 256 258 264 268 260 259 277 283 276 281 279 273 294 302 305 306 308 307 304 310 310 285 283 302 304 307 308 300 295 296 294 289 287 292 294 275 268 286 297 297
205 221 230 221 204 203 201 196 187 173 173 184 187 187 181 172 162 160 175 186 171 187 199 191 202 222 238 237 234 244 254 267 276 278 272 257 246 240 236 232 231 230 232 242 250 252 253 262 273 267 266 283 282 270 275 276 276 289 301 304 302 304 306 305 310 313 303 296 305 303 303 304 295 289 291 289 285 281 278 273 271 278 291 300 301
188 201 204 191 181 180 169 162 151 138 135 131 126 123 122 122 121 121 135 169 162 202 224 196 208 215 236 263 255 216 227 268 285 282 276 270 255 242 237 235 237 238 238 240 245 246 241 246 259 260 257 266 267 267 277 293 306 304 300 300 298 298 300 300 302 303 303 309 308 300 299 301 295 287 285 283 281 281 277 277 284 292 297 303 305
160 167 170 161 156 147 137 133 124 118 118 115 110 109 107 104 100 99 99 103 129 253 293 297 294 298 293 298 300 252 253 295 309 285 278 281 271 254 240 232 234 238 238 237 239 239 235 241 255 251 238 248 259 255 262 283 305 308 303 303 303 298 295 294 295 295 296 299 298 293 294 297 296 290 285 283 283 280 278 282 290 294 296 302 305
144 148 153 147 138 130 127 125 118 114 113 111 108 106 101 94 90 91 85 66 71 74 297 281 282 287 280 277 282 282 290 322 312 281 285 285 278 263 233 216 219 225 225 222 226 232 231 235 251 245 236 248 250 246 262 278 294 301 300 300 299 297 293 291 289 288 288 286 281 282 288 294 299 297 290 288 287 282 278 280 283 286 291 298 302
141 144 144 136 128 125 125 124 119 116 116 113 107 99 90 84 78 77 76 76 85 92 84 63 285 283 279 276 279 293 345 2 298 287 253 237 236 193 167 164 163 176 190 195 200 204 202 205 217 229 245 254 254 258 270 283 292 293 293 291 287 286 286 286 285 282 282 279 269 268 280 290 299 297 291 290 290 286 284 283 284 286 289 292 298
142 142 139 135 132 131 130 130 125 120 118 114 104 94 87 82 80 84 94 102 100 98 89 82 73 38 9 340 310 49 80 62 14 9 113 181 177 161 158 155 151 168 192 199 200 204 212 226 243 251 258 264 268 272 278 285 287 288 291 287 280 277 278 282 285 284 284 282 269 265 277 288 295 294 291 291 291 289 288 287 287 288 287 289 295
151 149 145 144 144 142 140 138 133 127 127 121 108 97 90 86 88 95 107 105 100 94 91 84 76 93 116 109 96 94 87 71 50 43 71 128 157 165 164 161 156 159 182 200 211 226 242 256 264 266 270 275 279 282 285 286 282 279 280 281 282 283 283 285 287 288 288 286 279 272 275 284 291 291 290 291 290 289 288 287 287 287 287 291 296
164 161 158 155 153 151 150 149 145 143 145 142 128 114 104 97 97 106 130 109 109 105 107 106 100 110 125 122 110 105 99 83 69 67 85 113 173 200 188 192 195 171 168 201 236 259 270 277 283 286 290 294 294 292 289 285 283 277 270 274 284 288 284 283 287 290 289 288 285 275 272 281 288 289 291 293 290 286 284 285 288 288 288 294 297
175 172 172 169 164 162 161 160 158 156 156 156 145 129 121 108 99 94 284 126 121 132 136 129 121 120 126 128 124 124 119 108 105 111 121 131 177 218 223 237 238 213 169 193 248 277 290 296 297 298 301 301 299 294 285 282 290 294 279 270 277 284 284 285 289 291 289 288 289 285 284 290 293 292 294 296 292 288 288 287 288 288 288 291 292